Regional Weather Roundup
Issued by NWS

Home | Current Version | Previous Version | Graphics & Text | Print | Product List | Glossary Off
Versions: 1 2 3 4 5 6 7 8 9 10 11 12 13 14 15 16 17 18 19 20 21 22 23 24 25 26 27 28 29 30 31 32 33 34 35 36 37 38 39 40 41 42 43 44 45 46 47 48 49 50

000
ASUS43 KDMX 202301
RWRIA

WEATHER ROUNDUP FOR IOWA
NATIONAL WEATHER SERVICE DES MOINES IA
500 PM CST FRI JAN 20 2017

NOTE: "FAIR" INDICATES FEW OR NO CLOUDS BELOW 12,000 FEET WITH NO
SIGNIFICANT WEATHER AND/OR OBSTRUCTIONS TO VISIBILITY.

* - THESE STATIONS ARE NOT NWS STATIONS...THUS NOT UNDER NWS
QUALITY CONTROL.  THEY ALSO DO NOT REPORT WEATHER SUCH
AS PRECIPITATION OR FOG.

IAZ001>003-012>014-020>022-031>034-043>046-210000-
   NORTHWEST IOWA

CITY           SKY/WX    TMP DP  RH WIND       PRES   REMARKS
CARROLL *      FOG       39  39 100 SE7       29.49S VSB<1/4 WCI  34
CHEROKEE *     CLOUDY    38  38 100 SE5       29.47R FOG     WCI  35
DENISON *      CLOUDY    39  39 100 E9        29.45S WCI  33
LE MARS *      CLOUDY    41  41 100 SE8       29.46S
ORANGE CITY *  CLOUDY    37  37 100 SE6       29.45S FOG     WCI  33
SHELDON *      CLOUDY    37  37 100 SE9       29.44S FOG     WCI  31
SIOUX CITY     FOG       43  41  93 SE10      29.45S VSB 1
SPENCER        CLOUDY    37  37 100 SE8       29.47F FOG     WCI  31
STORM LAKE *   MIX PCPN  37  37 100 SE8       29.48R VSB<1/4 WCI  31
$$

IAZ055>058-069>071-079>083-090>094-210000-
   SOUTHWEST IOWA

CITY           SKY/WX    TMP DP  RH WIND       PRES   REMARKS
ATLANTIC *     CLOUDY    41  41 100 E8        29.47S
AUDUBON *      FOG       39  37  93 SE5       29.49R VSB 1/4
CLARINDA *     CLOUDY    43  43 100 CALM      29.48S FOG
COUNCIL BLFS * FOG       41  41 100 E7        29.45S VSB<1/4
CRESTON *      CLOUDY    41  41 100 E10       29.49S FOG
HARLAN  *      CLOUDY    41  41 100 CALM      29.50S
LAMONI         LGT RAIN  43  43 100 E7        29.48S FOG
RED OAK *      CLOUDY    43  43 100 E6        29.47S
SHENANDOAH *   CLOUDY    43  43 100 E6        29.46S
$$

IAZ047>049-059>061-072>074-084-210000-
   CENTRAL IOWA

CITY           SKY/WX    TMP DP  RH WIND       PRES   REMARKS
AMES           FOG       39  39 100 SE7       29.52R VSB 1/2 WCI  34
ANKENY *       CLOUDY    39  39 100 NE7       29.52S FOG     WCI  34
BOONE *        FOG       37  37 100 SE7       29.50R VSB<1/4 WCI  32
CHARITON *     FOG       41  41 100 E7        29.51R VSB<1/4
DES MOINES     FOG       41  40  96 SE6       29.52R VSB 1/2
GRINNELL*      FOG       38  38  98 E3        29.53S VSB<1/4
KNOXVILLE *    FOG       41  39  93 SE6       29.51S VSB<1/4
MARSHALLTOWN   FOG       38  38 100 SE8       29.53R VSB 1/4 WCI  32
NEWTON *       FOG       39  39 100 NE9       29.51S VSB<1/4 WCI  33
PELLA *        FOG       40  40  99 E6        29.54R VSB 1/4
PERRY *        CLOUDY    40  40  98 E5        29.50F FOG
$$

IAZ004>006-015-016-023>025-035-036-210000-
   NORTH CENTRAL IOWA

CITY           SKY/WX    TMP DP  RH WIND       PRES   REMARKS
ALGONA *       FOG       36  36 100 SE6       29.49F VSB 1/4 WCI  31
CLARION *      CLOUDY    36  36 100 SE8       29.51S FOG     WCI  29
ESTHERVILLE    FOG       34  34 100 SE7       29.48F VSB 1/4 WCI  28
FORT DODGE *   CLOUDY    37  36  93 SE7       29.51S WCI  32
MASON CITY     FOG       34  33  96 E8        29.53F VSB 1/4 WCI  27
FOREST CITY *  CLOUDY    34  34 100 E3        29.51F FOG
WEBSTER CITY * FOG       37  37 100 SE7       29.50R VSB<1/4 WCI  32
IOWA FALLS *   FOG       37  37  97 E3        29.53S VSB<1/4
$$

IAZ007>011-017>019-026>030-037>042-050>054-066-210000-
   NORTHEAST IOWA

CITY           SKY/WX    TMP DP  RH WIND       PRES   REMARKS
CEDAR RAPIDS   CLOUDY    39  39 100 E7        29.54F FOG     WCI  34
CHARLES CITY * MIX PCPN  36  36 100 E6        29.55S VSB<1/4 WCI  31
CLINTON *      LGT RAIN  40  39  97 E6        29.59F VSB 1/4
DECORAH *      FOG       36  36 100 E6        29.56F VSB 1/2 WCI  31
DUBUQUE        FOG       37  37 100 E3        29.58F VSB<1/4
MONTICELLO *   FOG       39  39 100 E5        29.57S VSB 1/4
OELWEIN *      MIX PCPN  36  36 100 E9        29.56S VSB<1/4 WCI  29
WATERLOO       FOG       38  37  97 E7        29.55R VSB 3/4 WCI  33
$$

IAZ064-065-067-068-078-210000-
   EAST CENTRAL IOWA

CITY           SKY/WX    TMP DP  RH WIND       PRES   REMARKS
DAVENPORT      CLOUDY    43  42  97 E6        29.57F FOG
IOWA CITY      CLOUDY    43  41  93 E7        29.57S FOG
MUSCATINE *    CLOUDY    45  43  93 E3        29.57S
QUAD CITIES    CLOUDY    45  42  89 E7        29.56F
$$

IAZ062-063-075>077-085>089-095>099-210000-
   SOUTHEAST IOWA

CITY           SKY/WX    TMP DP  RH WIND       PRES   REMARKS
BURLINGTON     CLOUDY    44  44 100 E5        29.55S FOG
FAIRFIELD *    CLOUDY    43  43 100 SE6       29.55R FOG
FORT MADISON * FOG       45  43  93 E3        29.57R VSB 1/4
KEOKUK *       FOG       46 N/A N/A E7        29.54R VSB 1/4
OSKALOOSA *    FOG       41  40  99 SE9       29.54R VSB 1/2
OTTUMWA        FOG       43  41  93 SE9       29.53R VSB 1
WASHINGTON *   CLOUDY    43  43 100 SE8       29.57R FOG
$$

ABBREVIATIONS USED IN REMARKS
   TC - TEMPERATURES IN CELSIUS
  WCI - WIND CHILL INDEX
   HX - HEAT INDEX
  VSB - VISIBILITY
$$




USA.gov is the U.S. government's official web portal to all federal, state and local government web resources and services.